Location: Владивосток
(43.1151°N, 131.8856°E)
Time: 19:01:01
(UTC+10:00)

SDS-4 - Visible Passes

Search period start: 22 July 2024 00:00
Search period end: 01 August 2024 00:00
Orbit: 646 x 656 km, 98.2° (Epoch: 21 July)

Date Brightness Start Highest point End Pass type
(mag) Time Alt. Az. Time Alt. Az. Time Alt. Az.
22 Jul ? 00:19:20 34° WSW 00:19:31 34° W 00:23:37 10° NNW visible
22 Jul ? 23:08:49 38° ESE 23:09:45 44° ENE 23:14:01 10° N visible
23 Jul ? 00:46:39 18° W 00:46:40 18° W 00:49:48 10° NW visible
23 Jul ? 23:36:08 70° SSE 23:36:37 84° ENE 23:41:07 10° NNW visible
24 Jul ? 22:25:37 15° E 22:27:16 18° ENE 22:30:13 10° NNE visible
25 Jul ? 00:03:26 50° WSW 00:03:35 50° W 00:07:58 10° NNW visible
25 Jul ? 22:52:55 27° E 22:53:57 31° ENE 22:57:53 10° N visible
26 Jul ? 00:30:45 27° W 00:30:45 27° W 00:34:28 10° NW visible
26 Jul ? 23:20:13 53° ESE 23:20:45 57° ENE 23:25:10 10° N visible
27 Jul ? 00:58:02 14° W 00:58:02 14° W 01:00:16 10° WNW visible
27 Jul ? 22:09:42 10° E 22:11:33 12° ENE 22:13:25 10° NE visible
27 Jul ? 23:47:31 75° WSW 23:47:38 76° WSW 23:52:09 10° NNW visible
28 Jul ? 22:36:59 20° E 22:38:10 22° ENE 22:41:36 10° NNE visible
29 Jul ? 00:14:49 39° W 00:14:49 39° W 00:18:51 10° NNW visible
29 Jul ? 23:04:17 37° E 23:04:53 39° ENE 23:09:03 10° N visible
30 Jul ? 00:42:06 21° W 00:42:06 21° W 00:45:08 10° NW visible
30 Jul ? 23:31:34 73° E 23:31:42 74° ENE 23:36:11 10° N visible
31 Jul ? 01:09:23 11° W 01:09:23 11° W 01:10:09 10° WNW visible
31 Jul ? 22:21:02 14° E 22:22:23 16° ENE 22:25:01 10° NNE visible
